Location: Ełk
(53.8214°N, 22.3622°E)
Time: 22:38:12
(UTC+01:00)

ISS - Pass Details

Date: 27 January 2019
Orbit: 403 x 411 km, 51.6° (Epoch: 16 February)

Event Time Altitude Azimuth Distance (km) Brightness Sun altitude
Rises 18:23:52 0° 245° (WSW) 2,333 1.2 -20.7°
Reaches altitude 10° 18:26:00 10° 239° (WSW) 1,475 -0.1 -21.0°
Enters shadow 18:28:34 39° 199° (SSW) 627 -2.8 -21.4°
